SWA3159 KMCI-KSAN

Flight info

Callsign SWA3159
Flight time 3h 18m
Altitude 38000
Route WLDCT6 SLN DCT EXHAS DCT ZAROS DCT KD45W DCT RGINA DCT DILCO DCT DRK J96 PKE LUCKI1
Aircraft B737/M-SDE2E3FGHIRWXY/LB1

Departure

Time 2026-04-26 06:48
Airport Kansas City International Airport (KMCI)

Arrival

Time 2026-04-26 10:06
Airport San Diego International Airport (KSAN)
Time Latitude Longitude Altitude Speed Heading
2026-04-26 06:32 39.29951 -94.72303 1013 ft 0 kts 103°
2026-04-26 06:41 39.29951 -94.72305 1013 ft 2 kts 103°
2026-04-26 06:41 39.29957 -94.72338 1013 ft 3 kts 102°
2026-04-26 06:42 39.29962 -94.72363 1013 ft 4 kts 131°
2026-04-26 06:42 39.29981 -94.72372 1013 ft 3 kts 193°
2026-04-26 06:42 39.29997 -94.72368 1013 ft 0 kts 193°
2026-04-26 06:44 39.29994 -94.72368 1013 ft 3 kts 193°
2026-04-26 06:45 39.29948 -94.72382 1013 ft 11 kts 193°
2026-04-26 06:45 39.29849 -94.72412 1013 ft 13 kts 193°
2026-04-26 06:45 39.29822 -94.72499 1013 ft 7 kts 258°
2026-04-26 06:45 39.29766 -94.72531 1014 ft 12 kts 192°
2026-04-26 06:46 39.29670 -94.72559 1013 ft 17 kts 193°
2026-04-26 06:46 39.29542 -94.72598 1013 ft 20 kts 193°
2026-04-26 06:46 39.29406 -94.72638 1013 ft 20 kts 193°
2026-04-26 06:46 39.29282 -94.72676 1013 ft 15 kts 193°
2026-04-26 06:47 39.29194 -94.72642 1012 ft 13 kts 157°
2026-04-26 06:47 39.29115 -94.72640 1011 ft 11 kts 183°
2026-04-26 06:47 39.29079 -94.72567 1012 ft 14 kts 96°
2026-04-26 06:47 39.29048 -94.72202 1014 ft 75 kts 96°
2026-04-26 06:48 39.28969 -94.71252 1013 ft 135 kts 96°
2026-04-26 06:48 39.28859 -94.69857 1178 ft 169 kts 96°
2026-04-26 06:48 39.28734 -94.68324 1811 ft 175 kts 96°
2026-04-26 06:48 39.28554 -94.66769 2512 ft 177 kts 114°
2026-04-26 06:49 39.27740 -94.65545 2977 ft 198 kts 148°
2026-04-26 06:49 39.26329 -94.65135 3320 ft 224 kts 181°
2026-04-26 06:49 39.24769 -94.65862 3612 ft 259 kts 212°
2026-04-26 06:49 39.23573 -94.67700 4313 ft 279 kts 241°
2026-04-26 06:50 39.23151 -94.70164 5302 ft 287 kts 269°
2026-04-26 06:50 39.23570 -94.72685 6348 ft 289 kts 288°
2026-04-26 06:50 39.24313 -94.75097 7296 ft 291 kts 290°
2026-04-26 06:50 39.25115 -94.77523 8170 ft 295 kts 291°
2026-04-26 06:51 39.25921 -94.79931 9053 ft 296 kts 291°
2026-04-26 06:51 39.27108 -94.85002 10601 ft 304 kts 267°
2026-04-26 06:51 39.26910 -94.87824 10827 ft 327 kts 261°
2026-04-26 06:52 39.26567 -94.90836 11058 ft 349 kts 260°
2026-04-26 06:52 39.26187 -94.93983 11612 ft 358 kts 260°
2026-04-26 06:52 39.25807 -94.97181 12394 ft 360 kts 261°
2026-04-26 06:52 39.25444 -95.00343 13242 ft 360 kts 261°
2026-04-26 06:53 39.25085 -95.03553 14007 ft 363 kts 261°
2026-04-26 06:53 39.24729 -95.06795 14738 ft 368 kts 261°
2026-04-26 06:53 39.24371 -95.10081 15520 ft 370 kts 262°
2026-04-26 06:53 39.24014 -95.13382 16298 ft 372 kts 262°
2026-04-26 06:54 39.23654 -95.16701 17013 ft 376 kts 262°
2026-04-26 06:54 39.23294 -95.20018 17688 ft 379 kts 262°
2026-04-26 06:54 39.22927 -95.23394 18380 ft 381 kts 262°
2026-04-26 06:54 39.22554 -95.26800 19032 ft 385 kts 262°
2026-04-26 06:55 39.22179 -95.30233 19668 ft 388 kts 262°
2026-04-26 06:55 39.21797 -95.33705 20317 ft 390 kts 262°
2026-04-26 06:55 39.21418 -95.37149 20910 ft 393 kts 261°
2026-04-26 06:55 39.21023 -95.40649 21495 ft 396 kts 261°
2026-04-26 06:56 39.20616 -95.44179 22049 ft 399 kts 261°
2026-04-26 06:56 39.20203 -95.47726 22605 ft 401 kts 261°
2026-04-26 06:56 39.19785 -95.51300 23132 ft 404 kts 261°
2026-04-26 06:56 39.19366 -95.54892 23650 ft 407 kts 261°
2026-04-26 06:57 39.18942 -95.58515 24153 ft 409 kts 261°
2026-04-26 06:57 39.18517 -95.62152 24636 ft 411 kts 261°
2026-04-26 06:57 39.18088 -95.65800 25142 ft 412 kts 261°
2026-04-26 06:57 39.17663 -95.69414 25629 ft 414 kts 261°
2026-04-26 06:58 39.17230 -95.73093 26094 ft 415 kts 262°
2026-04-26 06:58 39.16791 -95.76777 26530 ft 418 kts 261°
2026-04-26 06:58 39.16332 -95.80490 27071 ft 416 kts 262°
2026-04-26 06:58 39.15927 -95.84201 27516 ft 418 kts 263°
2026-04-26 06:59 39.15642 -95.86664 27768 ft 420 kts 262°
2026-04-26 06:59 39.15037 -95.91611 28268 ft 422 kts 262°
2026-04-26 06:59 39.14581 -95.95350 28619 ft 423 kts 262°
2026-04-26 06:59 39.14116 -95.99092 28976 ft 425 kts 262°
2026-04-26 07:00 39.13644 -96.02848 29401 ft 423 kts 262°
2026-04-26 07:00 39.13324 -96.05367 29757 ft 421 kts 262°
2026-04-26 07:00 39.12853 -96.09086 30294 ft 418 kts 262°
2026-04-26 07:00 39.12394 -96.12708 30821 ft 414 kts 263°
2026-04-26 07:01 39.11775 -96.17584 31423 ft 411 kts 263°
2026-04-26 07:01 39.11469 -96.19993 31695 ft 410 kts 263°
2026-04-26 07:01 39.11006 -96.23624 32127 ft 408 kts 263°
2026-04-26 07:01 39.10546 -96.27220 32539 ft 406 kts 263°
2026-04-26 07:02 39.10088 -96.30805 32929 ft 405 kts 263°
2026-04-26 07:02 39.09631 -96.34370 33305 ft 403 kts 263°
2026-04-26 07:02 39.09178 -96.37894 33651 ft 402 kts 263°
2026-04-26 07:02 39.08716 -96.41479 33979 ft 400 kts 263°
2026-04-26 07:03 39.08266 -96.44965 34299 ft 399 kts 263°
2026-04-26 07:03 39.07810 -96.48481 34608 ft 398 kts 263°
2026-04-26 07:03 39.07355 -96.51993 34863 ft 398 kts 263°
2026-04-26 07:03 39.06896 -96.55519 35113 ft 398 kts 263°
2026-04-26 07:04 39.06438 -96.59034 35430 ft 396 kts 263°
2026-04-26 07:04 39.05981 -96.62528 35714 ft 395 kts 263°
2026-04-26 07:04 39.05524 -96.66012 35926 ft 395 kts 263°
2026-04-26 07:04 39.05071 -96.69462 36120 ft 396 kts 263°
2026-04-26 07:05 39.04610 -96.72963 36358 ft 395 kts 263°
2026-04-26 07:05 39.04149 -96.76455 36567 ft 395 kts 262°
2026-04-26 07:05 39.03686 -96.79954 36774 ft 395 kts 262°
2026-04-26 07:05 39.03230 -96.83387 37087 ft 392 kts 262°
2026-04-26 07:06 39.02772 -96.86832 37413 ft 388 kts 262°
2026-04-26 07:06 39.02317 -96.90236 37752 ft 384 kts 262°
2026-04-26 07:06 39.01865 -96.93617 37881 ft 385 kts 262°
2026-04-26 07:06 39.01410 -96.97035 37889 ft 388 kts 262°
2026-04-26 07:07 39.00496 -97.03845 37890 ft 387 kts 262°
2026-04-26 07:07 38.99578 -97.10642 37892 ft 383 kts 262°
2026-04-26 07:08 38.98671 -97.17325 37898 ft 380 kts 262°
2026-04-26 07:08 38.97760 -97.24015 37901 ft 379 kts 262°
2026-04-26 07:09 38.96846 -97.30701 37896 ft 380 kts 262°
2026-04-26 07:09 38.95926 -97.37408 37902 ft 381 kts 262°
2026-04-26 07:11 38.93593 -97.54260 37901 ft 386 kts 262°
2026-04-26 07:11 38.92642 -97.61076 37901 ft 389 kts 262°
2026-04-26 07:12 38.91641 -97.67925 37897 ft 390 kts 261°
2026-04-26 07:12 38.90597 -97.74768 37906 ft 390 kts 261°
2026-04-26 07:13 38.89559 -97.81547 37907 ft 389 kts 261°
2026-04-26 07:13 38.88515 -97.88371 37905 ft 388 kts 261°
2026-04-26 07:14 38.87480 -97.95127 37912 ft 387 kts 261°
2026-04-26 07:14 38.86435 -98.01923 37916 ft 386 kts 261°
2026-04-26 07:15 38.85410 -98.08567 37925 ft 385 kts 261°
2026-04-26 07:15 38.84366 -98.15312 37923 ft 385 kts 261°
2026-04-26 07:16 38.83320 -98.22032 37938 ft 384 kts 261°
2026-04-26 07:16 38.82271 -98.28748 37936 ft 384 kts 261°
2026-04-26 07:17 38.81218 -98.35467 37936 ft 384 kts 261°
2026-04-26 07:17 38.80159 -98.42196 37936 ft 384 kts 261°
2026-04-26 07:18 38.79104 -98.48870 37936 ft 385 kts 261°
2026-04-26 07:18 38.78034 -98.55610 37923 ft 385 kts 261°
2026-04-26 07:19 38.76964 -98.62339 37929 ft 385 kts 260°
2026-04-26 07:19 38.75885 -98.69080 37926 ft 385 kts 260°
2026-04-26 07:20 38.74812 -98.75761 37919 ft 385 kts 260°
2026-04-26 07:20 38.73728 -98.82490 37916 ft 385 kts 260°
2026-04-26 07:21 38.72640 -98.89215 37928 ft 385 kts 260°
2026-04-26 07:21 38.71557 -98.95892 37928 ft 385 kts 260°
2026-04-26 07:22 38.70463 -99.02607 37937 ft 385 kts 260°
2026-04-26 07:22 38.69364 -99.09320 37945 ft 384 kts 260°
2026-04-26 07:23 38.68270 -99.15984 37942 ft 384 kts 260°
2026-04-26 07:23 38.67167 -99.22670 37953 ft 384 kts 260°
2026-04-26 07:24 38.66060 -99.29360 37945 ft 384 kts 260°
2026-04-26 07:24 38.64950 -99.36050 37966 ft 383 kts 260°
2026-04-26 07:25 38.63837 -99.42719 37964 ft 383 kts 260°
2026-04-26 07:25 38.62730 -99.49329 37964 ft 382 kts 260°
2026-04-26 07:26 38.61611 -99.55992 37971 ft 382 kts 260°
2026-04-26 07:26 38.60499 -99.62594 37965 ft 382 kts 259°
2026-04-26 07:27 38.59373 -99.69243 37966 ft 382 kts 259°
2026-04-26 07:27 38.58246 -99.75886 37966 ft 382 kts 259°
2026-04-26 07:28 38.57120 -99.82486 37954 ft 382 kts 259°
2026-04-26 07:28 38.55985 -99.89131 37960 ft 382 kts 259°
2026-04-26 07:29 38.54848 -99.95762 37954 ft 382 kts 259°
2026-04-26 07:29 38.53715 -100.02339 37961 ft 381 kts 259°
2026-04-26 07:30 38.52573 -100.08943 37969 ft 380 kts 259°
2026-04-26 07:30 38.51427 -100.15544 37984 ft 380 kts 259°
2026-04-26 07:31 38.50287 -100.22097 37983 ft 380 kts 259°
2026-04-26 07:31 38.49135 -100.28692 37988 ft 380 kts 259°
2026-04-26 07:32 38.47988 -100.35231 37989 ft 380 kts 259°
2026-04-26 07:32 38.46832 -100.41809 37993 ft 380 kts 259°
2026-04-26 07:33 38.45670 -100.48390 37992 ft 380 kts 259°
2026-04-26 07:33 38.44502 -100.54983 37991 ft 381 kts 259°
2026-04-26 07:34 38.43338 -100.61527 37988 ft 381 kts 259°
2026-04-26 07:34 38.42156 -100.68146 37993 ft 381 kts 259°
2026-04-26 07:35 38.40977 -100.74737 37994 ft 381 kts 258°
2026-04-26 07:35 38.39792 -100.81332 38001 ft 381 kts 258°
2026-04-26 07:36 38.38611 -100.87883 38004 ft 382 kts 258°
2026-04-26 07:36 38.37418 -100.94484 37997 ft 382 kts 258°
2026-04-26 07:37 38.36221 -101.01082 38001 ft 382 kts 258°
2026-04-26 07:37 38.35019 -101.07688 38000 ft 382 kts 258°
2026-04-26 07:38 38.33818 -101.14257 37991 ft 383 kts 258°
2026-04-26 07:38 38.32198 -101.20721 37996 ft 384 kts 252°
2026-04-26 07:39 38.30333 -101.27099 37995 ft 384 kts 251°
2026-04-26 07:39 38.28471 -101.33478 37990 ft 384 kts 252°
2026-04-26 07:40 38.26630 -101.39810 37989 ft 383 kts 252°
2026-04-26 07:40 38.24785 -101.46166 37992 ft 382 kts 252°
2026-04-26 07:41 38.22938 -101.52518 37989 ft 382 kts 251°
2026-04-26 07:41 38.21103 -101.58816 37980 ft 382 kts 251°
2026-04-26 07:42 38.19250 -101.65166 37978 ft 382 kts 251°
2026-04-26 07:42 38.17412 -101.71445 37978 ft 381 kts 251°
2026-04-26 07:43 38.15556 -101.77768 37966 ft 380 kts 251°
2026-04-26 07:43 38.13702 -101.84074 37965 ft 380 kts 251°
2026-04-26 07:44 38.11856 -101.90334 37962 ft 380 kts 251°
2026-04-26 07:44 38.09998 -101.96623 37969 ft 380 kts 251°
2026-04-26 07:45 38.08135 -102.02913 37970 ft 380 kts 251°
2026-04-26 07:45 38.06269 -102.09200 37965 ft 380 kts 251°
2026-04-26 07:46 38.04398 -102.15489 37968 ft 381 kts 251°
2026-04-26 07:46 38.02537 -102.21732 37978 ft 380 kts 251°
2026-04-26 07:47 38.00660 -102.28021 37964 ft 381 kts 251°
2026-04-26 07:47 37.98775 -102.34319 37966 ft 381 kts 251°
2026-04-26 07:48 37.96960 -102.40588 37967 ft 381 kts 252°
2026-04-26 07:48 37.95161 -102.46903 37968 ft 380 kts 252°
2026-04-26 07:49 37.93360 -102.53204 37980 ft 380 kts 252°
2026-04-26 07:49 37.91562 -102.59463 37967 ft 380 kts 251°
2026-04-26 07:50 37.88833 -102.68897 37971 ft 379 kts 251°
2026-04-26 07:50 37.87028 -102.75138 37968 ft 379 kts 251°
2026-04-26 07:51 37.85213 -102.81402 37977 ft 378 kts 251°
2026-04-26 07:51 37.83701 -102.86602 37979 ft 378 kts 251°
2026-04-26 07:52 37.81583 -102.93869 37978 ft 378 kts 251°
2026-04-26 07:52 37.79762 -103.00099 37979 ft 377 kts 251°
2026-04-26 07:53 37.77949 -103.06291 37966 ft 377 kts 251°
2026-04-26 07:53 37.76432 -103.11460 37980 ft 377 kts 251°
2026-04-26 07:54 37.74604 -103.17670 37969 ft 376 kts 251°
2026-04-26 07:54 37.72774 -103.23881 37979 ft 376 kts 251°
2026-04-26 07:55 37.70956 -103.30034 37971 ft 376 kts 251°
2026-04-26 07:55 37.69127 -103.36210 37980 ft 376 kts 251°
2026-04-26 07:56 37.67292 -103.42394 37984 ft 376 kts 251°
2026-04-26 07:56 37.65464 -103.48540 37981 ft 376 kts 251°
2026-04-26 07:57 37.63619 -103.54730 37981 ft 376 kts 251°
2026-04-26 07:57 37.61769 -103.60919 37979 ft 376 kts 251°
2026-04-26 07:58 37.59929 -103.67063 37980 ft 376 kts 251°
2026-04-26 07:58 37.58074 -103.73246 37983 ft 376 kts 251°
2026-04-26 07:59 37.56220 -103.79418 37979 ft 376 kts 250°
2026-04-26 07:59 37.54373 -103.85541 37978 ft 376 kts 250°
2026-04-26 08:00 37.52505 -103.91724 37979 ft 376 kts 250°
2026-04-26 08:00 37.50639 -103.97889 37976 ft 376 kts 250°
2026-04-26 08:01 37.48783 -104.04053 37970 ft 376 kts 251°
2026-04-26 08:01 37.46954 -104.10207 37976 ft 376 kts 251°
2026-04-26 08:02 37.45130 -104.16341 37964 ft 376 kts 251°
2026-04-26 08:02 37.43288 -104.22512 37963 ft 376 kts 251°
2026-04-26 08:03 37.41456 -104.28633 37966 ft 375 kts 250°
2026-04-26 08:03 37.39609 -104.34786 37967 ft 375 kts 250°
2026-04-26 08:04 37.37765 -104.40916 37968 ft 374 kts 250°
2026-04-26 08:04 37.35933 -104.46995 37962 ft 374 kts 250°
2026-04-26 08:05 37.34088 -104.53108 37967 ft 373 kts 250°
2026-04-26 08:05 37.32236 -104.59223 37954 ft 373 kts 250°
2026-04-26 08:06 37.30395 -104.65289 37978 ft 373 kts 250°
2026-04-26 08:06 37.28553 -104.71344 37970 ft 373 kts 250°
2026-04-26 08:07 37.26702 -104.77424 37979 ft 373 kts 250°
2026-04-26 08:07 37.24846 -104.83505 37991 ft 373 kts 250°
2026-04-26 08:08 37.22995 -104.89557 38023 ft 373 kts 250°
2026-04-26 08:08 37.21132 -104.95630 38031 ft 372 kts 250°
2026-04-26 08:09 37.19270 -105.01691 38038 ft 372 kts 250°
2026-04-26 08:09 37.17410 -105.07731 38043 ft 372 kts 250°
2026-04-26 08:10 37.15539 -105.13796 38047 ft 372 kts 250°
2026-04-26 08:10 37.13665 -105.19850 38056 ft 372 kts 250°
2026-04-26 08:11 37.11785 -105.25914 38043 ft 374 kts 250°
2026-04-26 08:11 37.09908 -105.31959 38047 ft 374 kts 250°
2026-04-26 08:12 37.08013 -105.38047 38043 ft 374 kts 250°
2026-04-26 08:12 37.06118 -105.44118 38041 ft 374 kts 249°
2026-04-26 08:13 37.04234 -105.50147 38050 ft 373 kts 249°
2026-04-26 08:13 37.02349 -105.56163 38035 ft 373 kts 249°
2026-04-26 08:14 37.00453 -105.62195 38036 ft 372 kts 249°
2026-04-26 08:14 36.98557 -105.68223 38036 ft 371 kts 249°
2026-04-26 08:15 36.96664 -105.74231 38036 ft 371 kts 249°
2026-04-26 08:15 36.94769 -105.80230 38038 ft 370 kts 249°
2026-04-26 08:16 36.92870 -105.86228 38038 ft 370 kts 249°
2026-04-26 08:16 36.90985 -105.92170 38032 ft 370 kts 249°
2026-04-26 08:17 36.89085 -105.98144 38027 ft 370 kts 249°
2026-04-26 08:17 36.87184 -106.04118 38021 ft 369 kts 249°
2026-04-26 08:18 36.85292 -106.10048 38014 ft 370 kts 249°
2026-04-26 08:18 36.83379 -106.16023 38014 ft 370 kts 249°
2026-04-26 08:19 36.81474 -106.21964 38020 ft 370 kts 249°
2026-04-26 08:19 36.79556 -106.27935 38031 ft 370 kts 249°
2026-04-26 08:20 36.77636 -106.33901 38047 ft 370 kts 249°
2026-04-26 08:20 36.75726 -106.39826 38042 ft 370 kts 249°
2026-04-26 08:21 36.73798 -106.45795 38044 ft 371 kts 249°
2026-04-26 08:21 36.71863 -106.51766 38048 ft 372 kts 248°
2026-04-26 08:22 36.69936 -106.57704 38041 ft 372 kts 248°
2026-04-26 08:22 36.67991 -106.63684 38039 ft 372 kts 248°
2026-04-26 08:23 36.66050 -106.69641 38033 ft 372 kts 248°
2026-04-26 08:23 36.64101 -106.75616 38025 ft 372 kts 248°
2026-04-26 08:24 36.62162 -106.81540 38019 ft 371 kts 248°
2026-04-26 08:24 36.60215 -106.87483 38031 ft 369 kts 248°
2026-04-26 08:25 36.58272 -106.93399 38042 ft 368 kts 248°
2026-04-26 08:25 36.56340 -106.99269 38049 ft 368 kts 248°
2026-04-26 08:26 36.54399 -107.05155 38047 ft 368 kts 248°
2026-04-26 08:26 36.52452 -107.11046 38026 ft 368 kts 248°
2026-04-26 08:27 36.50497 -107.16951 38024 ft 369 kts 248°
2026-04-26 08:27 36.48556 -107.22809 38016 ft 369 kts 248°
2026-04-26 08:28 36.46596 -107.28705 38018 ft 369 kts 248°
2026-04-26 08:28 36.44666 -107.34614 38020 ft 369 kts 248°
2026-04-26 08:29 36.42777 -107.40497 38015 ft 368 kts 248°
2026-04-26 08:29 36.40873 -107.46412 38023 ft 368 kts 248°
2026-04-26 08:30 36.38970 -107.52307 38015 ft 368 kts 248°
2026-04-26 08:30 36.37070 -107.58174 37989 ft 368 kts 248°
2026-04-26 08:31 36.35157 -107.64069 37989 ft 367 kts 248°
2026-04-26 08:31 36.33256 -107.69911 37979 ft 367 kts 248°
2026-04-26 08:32 36.31340 -107.75790 37971 ft 367 kts 248°
2026-04-26 08:32 36.29422 -107.81663 37971 ft 366 kts 248°
2026-04-26 08:33 36.27517 -107.87479 37967 ft 366 kts 248°
2026-04-26 08:33 36.25599 -107.93330 37965 ft 366 kts 248°
2026-04-26 08:34 36.23689 -107.99146 37960 ft 366 kts 248°
2026-04-26 08:34 36.21767 -108.04986 37965 ft 366 kts 248°
2026-04-26 08:35 36.19841 -108.10825 37979 ft 365 kts 248°
2026-04-26 08:35 36.17928 -108.16614 37969 ft 365 kts 248°
2026-04-26 08:36 36.16001 -108.22437 37979 ft 365 kts 248°
2026-04-26 08:36 36.14069 -108.28262 37967 ft 366 kts 248°
2026-04-26 08:37 36.12131 -108.34089 37980 ft 365 kts 248°
2026-04-26 08:37 36.10205 -108.39868 37969 ft 366 kts 248°
2026-04-26 08:38 36.08269 -108.45669 37980 ft 366 kts 248°
2026-04-26 08:38 36.06316 -108.51499 37978 ft 366 kts 248°
2026-04-26 08:39 36.04381 -108.57278 37983 ft 365 kts 248°
2026-04-26 08:39 36.02433 -108.63088 37981 ft 365 kts 248°
2026-04-26 08:40 36.00492 -108.68860 37986 ft 366 kts 247°
2026-04-26 08:40 35.98533 -108.74674 37987 ft 366 kts 248°
2026-04-26 08:41 35.96577 -108.80466 37968 ft 365 kts 247°
2026-04-26 08:41 35.94635 -108.86211 37989 ft 365 kts 247°
2026-04-26 08:42 35.92676 -108.91990 37990 ft 365 kts 247°
2026-04-26 08:42 35.90713 -108.97771 37984 ft 365 kts 247°
2026-04-26 08:43 35.88757 -109.03521 37992 ft 365 kts 247°
2026-04-26 08:43 35.86785 -109.09310 37982 ft 365 kts 247°
2026-04-26 08:44 35.84812 -109.15086 37989 ft 366 kts 247°
2026-04-26 08:44 35.82847 -109.20828 37990 ft 365 kts 247°
2026-04-26 08:45 35.80871 -109.26592 37991 ft 365 kts 247°
2026-04-26 08:45 35.78886 -109.32373 37996 ft 366 kts 247°
2026-04-26 08:46 35.76894 -109.38163 37983 ft 367 kts 247°
2026-04-26 08:46 35.74911 -109.43918 37985 ft 367 kts 247°
2026-04-26 08:47 35.72906 -109.49722 37980 ft 368 kts 247°
2026-04-26 08:47 35.70898 -109.55524 37971 ft 368 kts 247°
2026-04-26 08:48 35.68896 -109.61297 37967 ft 368 kts 246°
2026-04-26 08:48 35.66894 -109.67060 37969 ft 368 kts 246°
2026-04-26 08:49 35.64881 -109.72848 37961 ft 368 kts 246°
2026-04-26 08:49 35.62866 -109.78628 37966 ft 367 kts 246°
2026-04-26 08:50 35.60864 -109.84363 37959 ft 367 kts 246°
2026-04-26 08:50 35.58846 -109.90128 37954 ft 368 kts 246°
2026-04-26 08:51 35.55820 -109.98758 37947 ft 368 kts 246°
2026-04-26 08:52 35.53790 -110.04536 37946 ft 368 kts 246°
2026-04-26 08:52 35.51801 -110.10329 37938 ft 368 kts 248°
2026-04-26 08:53 35.49897 -110.16117 37923 ft 368 kts 248°
2026-04-26 08:53 35.47984 -110.21941 37930 ft 368 kts 248°
2026-04-26 08:54 35.46061 -110.27760 37918 ft 367 kts 248°
2026-04-26 08:54 35.44144 -110.33536 37918 ft 367 kts 247°
2026-04-26 08:55 35.42214 -110.39337 37915 ft 367 kts 247°
2026-04-26 08:55 35.40609 -110.44153 37919 ft 366 kts 247°
2026-04-26 08:56 35.38364 -110.50873 37918 ft 366 kts 247°
2026-04-26 08:56 35.36743 -110.55713 37910 ft 366 kts 247°
2026-04-26 08:57 35.34822 -110.61443 37903 ft 365 kts 247°
2026-04-26 08:57 35.32887 -110.67205 37911 ft 365 kts 247°
2026-04-26 08:58 35.30950 -110.72963 37908 ft 365 kts 247°
2026-04-26 08:58 35.29026 -110.78673 37902 ft 364 kts 247°
2026-04-26 08:59 35.27086 -110.84420 37908 ft 364 kts 247°
2026-04-26 08:59 35.25160 -110.90110 37909 ft 364 kts 247°
2026-04-26 09:00 35.23215 -110.95841 37907 ft 364 kts 247°
2026-04-26 09:00 35.21273 -111.01561 37910 ft 364 kts 247°
2026-04-26 09:01 35.19340 -111.07240 37906 ft 364 kts 247°
2026-04-26 09:01 35.17391 -111.12961 37911 ft 364 kts 247°
2026-04-26 09:02 35.15449 -111.18646 37915 ft 364 kts 247°
2026-04-26 09:02 35.13491 -111.24368 37914 ft 364 kts 246°
2026-04-26 09:03 35.11543 -111.30048 37918 ft 365 kts 246°
2026-04-26 09:03 35.09577 -111.35772 37917 ft 365 kts 246°
2026-04-26 09:04 35.07610 -111.41489 37915 ft 365 kts 246°
2026-04-26 09:04 35.05654 -111.47163 37921 ft 365 kts 246°
2026-04-26 09:05 35.03681 -111.52876 37916 ft 365 kts 246°
2026-04-26 09:05 35.01705 -111.58587 37924 ft 364 kts 246°
2026-04-26 09:06 34.99743 -111.64246 37921 ft 364 kts 246°
2026-04-26 09:06 34.97767 -111.69937 37913 ft 365 kts 246°
2026-04-26 09:07 34.95784 -111.75639 37908 ft 364 kts 246°
2026-04-26 09:07 34.93813 -111.81296 37894 ft 365 kts 246°
2026-04-26 09:08 34.91824 -111.86994 37883 ft 364 kts 246°
2026-04-26 09:08 34.89846 -111.92647 37871 ft 365 kts 246°
2026-04-26 09:09 34.87855 -111.98328 37867 ft 364 kts 246°
2026-04-26 09:09 34.85863 -112.04005 37870 ft 363 kts 246°
2026-04-26 09:10 34.83878 -112.09646 37838 ft 361 kts 246°
2026-04-26 09:10 34.81920 -112.15204 37847 ft 358 kts 246°
2026-04-26 09:11 34.79956 -112.20776 37851 ft 357 kts 246°
2026-04-26 09:11 34.77992 -112.26328 37850 ft 357 kts 246°
2026-04-26 09:12 34.76042 -112.31836 37863 ft 356 kts 246°
2026-04-26 09:12 34.74080 -112.37365 37866 ft 356 kts 246°
2026-04-26 09:13 34.72118 -112.42890 37880 ft 356 kts 246°
2026-04-26 09:13 34.70179 -112.48433 37879 ft 357 kts 249°
2026-04-26 09:14 34.68650 -112.54138 37880 ft 358 kts 250°
2026-04-26 09:14 34.67145 -112.59929 37878 ft 358 kts 250°
2026-04-26 09:15 34.65635 -112.65707 37867 ft 359 kts 250°
2026-04-26 09:15 34.64120 -112.71461 37873 ft 359 kts 250°
2026-04-26 09:16 34.62590 -112.77254 37868 ft 360 kts 250°
2026-04-26 09:16 34.61065 -112.83010 37876 ft 361 kts 250°
2026-04-26 09:17 34.59521 -112.88821 37859 ft 361 kts 250°
2026-04-26 09:17 34.57976 -112.94627 37862 ft 360 kts 250°
2026-04-26 09:18 34.56437 -113.00396 37863 ft 360 kts 250°
2026-04-26 09:18 34.54897 -113.06153 37859 ft 361 kts 250°
2026-04-26 09:19 34.53345 -113.11947 37858 ft 359 kts 250°
2026-04-26 09:19 34.51798 -113.17712 37860 ft 359 kts 250°
2026-04-26 09:20 34.50251 -113.23464 37855 ft 359 kts 250°
2026-04-26 09:20 34.48713 -113.29171 37855 ft 358 kts 250°
2026-04-26 09:21 34.47164 -113.34900 37853 ft 357 kts 250°
2026-04-26 09:21 34.45616 -113.40617 37851 ft 357 kts 250°
2026-04-26 09:22 34.44074 -113.46301 37845 ft 356 kts 250°
2026-04-26 09:22 34.42523 -113.52004 37842 ft 356 kts 250°
2026-04-26 09:23 34.40983 -113.57663 37827 ft 355 kts 250°
2026-04-26 09:23 34.39430 -113.63355 37825 ft 355 kts 250°
2026-04-26 09:24 34.37876 -113.69034 37824 ft 354 kts 250°
2026-04-26 09:24 34.36338 -113.74642 37817 ft 353 kts 250°
2026-04-26 09:25 34.34789 -113.80283 37811 ft 352 kts 250°
2026-04-26 09:25 34.33250 -113.85873 37811 ft 351 kts 250°
2026-04-26 09:26 34.31706 -113.91473 37813 ft 351 kts 249°
2026-04-26 09:26 34.30167 -113.97046 37814 ft 350 kts 249°
2026-04-26 09:27 34.28619 -114.02638 37808 ft 350 kts 249°
2026-04-26 09:27 34.27068 -114.08229 37801 ft 351 kts 249°
2026-04-26 09:28 34.25510 -114.13820 37803 ft 351 kts 249°
2026-04-26 09:28 34.23955 -114.19388 37808 ft 351 kts 249°
2026-04-26 09:29 34.22391 -114.24980 37804 ft 351 kts 249°
2026-04-26 09:29 34.20829 -114.30549 37807 ft 351 kts 249°
2026-04-26 09:30 34.19257 -114.36147 37805 ft 352 kts 249°
2026-04-26 09:30 34.17680 -114.41753 37806 ft 353 kts 249°
2026-04-26 09:31 34.16097 -114.47368 37805 ft 353 kts 249°
2026-04-26 09:31 34.14521 -114.52951 37802 ft 354 kts 249°
2026-04-26 09:32 34.12926 -114.58592 37808 ft 354 kts 249°
2026-04-26 09:32 34.11329 -114.64222 37817 ft 355 kts 249°
2026-04-26 09:33 34.09259 -114.69569 37825 ft 355 kts 239°
2026-04-26 09:33 34.06364 -114.74422 37824 ft 357 kts 235°
2026-04-26 09:34 34.03346 -114.79202 37825 ft 358 kts 235°
2026-04-26 09:34 34.00321 -114.83997 37821 ft 360 kts 235°
2026-04-26 09:35 33.97317 -114.88774 37836 ft 359 kts 236°
2026-04-26 09:35 33.94310 -114.93557 37819 ft 357 kts 236°
2026-04-26 09:36 33.91316 -114.98315 37825 ft 355 kts 236°
2026-04-26 09:36 33.88338 -115.03046 37829 ft 354 kts 236°
2026-04-26 09:37 33.85387 -115.07724 37828 ft 353 kts 236°
2026-04-26 09:37 33.82410 -115.12441 37830 ft 354 kts 236°
2026-04-26 09:38 33.79427 -115.17160 37835 ft 354 kts 236°
2026-04-26 09:38 33.76457 -115.21854 37832 ft 355 kts 236°
2026-04-26 09:39 33.73461 -115.26582 37841 ft 355 kts 236°
2026-04-26 09:39 33.70457 -115.31315 37844 ft 356 kts 236°
2026-04-26 09:40 33.67475 -115.36007 37837 ft 356 kts 236°
2026-04-26 09:40 33.65950 -115.38407 37375 ft 362 kts 236°
2026-04-26 09:40 33.64422 -115.40808 36761 ft 360 kts 235°
2026-04-26 09:40 33.62909 -115.43182 36181 ft 356 kts 235°
2026-04-26 09:41 33.61442 -115.45482 35761 ft 349 kts 235°
2026-04-26 09:41 33.59973 -115.47782 35276 ft 345 kts 235°
2026-04-26 09:41 33.58520 -115.50058 34762 ft 341 kts 235°
2026-04-26 09:41 33.57088 -115.52301 34278 ft 337 kts 235°
2026-04-26 09:42 33.55673 -115.54515 33817 ft 332 kts 235°
2026-04-26 09:42 33.54275 -115.56702 33349 ft 328 kts 235°
2026-04-26 09:42 33.52898 -115.58858 32895 ft 323 kts 235°
2026-04-26 09:42 33.51553 -115.60958 32451 ft 319 kts 235°
2026-04-26 09:43 33.50207 -115.63061 31988 ft 316 kts 235°
2026-04-26 09:43 33.48876 -115.65136 31547 ft 312 kts 235°
2026-04-26 09:43 33.47564 -115.67185 31110 ft 309 kts 235°
2026-04-26 09:43 33.46260 -115.69221 30674 ft 306 kts 235°
2026-04-26 09:44 33.44987 -115.71202 30243 ft 303 kts 235°
2026-04-26 09:44 33.43697 -115.73213 29824 ft 301 kts 235°
2026-04-26 09:44 33.42436 -115.75177 29397 ft 300 kts 235°
2026-04-26 09:44 33.41161 -115.77158 28958 ft 301 kts 234°
2026-04-26 09:45 33.39877 -115.79156 28500 ft 303 kts 234°
2026-04-26 09:45 33.38592 -115.81153 28034 ft 302 kts 234°
2026-04-26 09:45 33.37316 -115.83134 27569 ft 298 kts 234°
2026-04-26 09:45 33.36056 -115.85087 27113 ft 295 kts 234°
2026-04-26 09:46 33.34804 -115.87030 26657 ft 294 kts 234°
2026-04-26 09:46 33.33565 -115.88950 26213 ft 295 kts 234°
2026-04-26 09:46 33.32311 -115.90896 25755 ft 296 kts 234°
2026-04-26 09:46 33.31049 -115.92850 25295 ft 298 kts 234°
2026-04-26 09:47 33.29783 -115.94809 24828 ft 296 kts 234°
2026-04-26 09:47 33.28546 -115.96724 24376 ft 293 kts 234°
2026-04-26 09:47 33.27304 -115.98644 23925 ft 291 kts 233°
2026-04-26 09:47 33.26070 -116.00550 23475 ft 289 kts 233°
2026-04-26 09:48 33.24839 -116.02450 23027 ft 288 kts 234°
2026-04-26 09:48 33.23609 -116.04351 22587 ft 290 kts 234°
2026-04-26 09:48 33.22380 -116.06248 22144 ft 292 kts 234°
2026-04-26 09:48 33.21131 -116.08175 21682 ft 293 kts 234°
2026-04-26 09:49 33.19886 -116.10097 21233 ft 291 kts 234°
2026-04-26 09:49 33.18648 -116.12003 20777 ft 289 kts 234°
2026-04-26 09:49 33.17423 -116.13890 20335 ft 287 kts 234°
2026-04-26 09:49 33.16220 -116.15741 19901 ft 284 kts 234°
2026-04-26 09:50 33.15011 -116.17602 19467 ft 283 kts 234°
2026-04-26 09:50 33.13801 -116.19463 19031 ft 285 kts 234°
2026-04-26 09:50 33.12581 -116.21340 18593 ft 288 kts 234°
2026-04-26 09:50 33.11357 -116.23221 18145 ft 285 kts 234°
2026-04-26 09:51 33.10141 -116.25088 17716 ft 283 kts 233°
2026-04-26 09:51 33.08940 -116.26930 17266 ft 279 kts 233°
2026-04-26 09:51 33.07761 -116.28737 16859 ft 280 kts 233°
2026-04-26 09:51 33.06558 -116.30582 16423 ft 283 kts 233°
2026-04-26 09:52 33.05347 -116.32437 16011 ft 284 kts 233°
2026-04-26 09:52 33.02929 -116.36140 15138 ft 280 kts 233°
2026-04-26 09:52 33.01733 -116.37971 14706 ft 280 kts 233°
2026-04-26 09:53 33.00555 -116.39772 14287 ft 278 kts 233°
2026-04-26 09:53 32.99368 -116.41586 13862 ft 277 kts 233°
2026-04-26 09:53 32.98174 -116.43406 13443 ft 280 kts 233°
2026-04-26 09:53 32.96975 -116.45241 13014 ft 280 kts 233°
2026-04-26 09:54 32.95785 -116.47061 12585 ft 277 kts 233°
2026-04-26 09:54 32.94604 -116.48861 12131 ft 274 kts 233°
2026-04-26 09:54 32.93428 -116.50653 11785 ft 277 kts 233°
2026-04-26 09:54 32.92234 -116.52471 11333 ft 279 kts 233°
2026-04-26 09:55 32.91060 -116.54259 10916 ft 276 kts 233°
2026-04-26 09:55 32.89878 -116.56059 10491 ft 275 kts 233°
2026-04-26 09:55 32.88699 -116.57854 10125 ft 273 kts 234°
2026-04-26 09:55 32.87549 -116.59603 10010 ft 266 kts 234°
2026-04-26 09:56 32.86405 -116.61343 9641 ft 268 kts 234°
2026-04-26 09:56 32.85274 -116.63062 9253 ft 266 kts 234°
2026-04-26 09:56 32.84136 -116.64793 8891 ft 264 kts 234°
2026-04-26 09:56 32.83006 -116.66512 8508 ft 263 kts 234°
2026-04-26 09:57 32.81875 -116.68228 8144 ft 263 kts 234°
2026-04-26 09:57 32.80764 -116.69915 7762 ft 261 kts 234°
2026-04-26 09:57 32.79643 -116.71614 7397 ft 260 kts 234°
2026-04-26 09:57 32.78526 -116.73305 7023 ft 260 kts 234°
2026-04-26 09:58 32.77413 -116.74989 6658 ft 258 kts 234°
2026-04-26 09:58 32.76304 -116.76670 6294 ft 257 kts 234°
2026-04-26 09:58 32.75199 -116.78342 5930 ft 256 kts 234°
2026-04-26 09:58 32.74114 -116.79983 5574 ft 255 kts 235°
2026-04-26 09:59 32.73036 -116.81615 5458 ft 245 kts 234°
2026-04-26 09:59 32.72346 -116.82657 5351 ft 241 kts 234°
2026-04-26 09:59 32.70999 -116.84691 5211 ft 229 kts 234°
2026-04-26 09:59 32.70037 -116.86145 5134 ft 217 kts 235°
2026-04-26 10:00 32.69138 -116.87498 5030 ft 201 kts 236°
2026-04-26 10:00 32.68509 -116.88906 4854 ft 186 kts 254°
2026-04-26 10:00 32.68109 -116.90330 4638 ft 184 kts 253°
2026-04-26 10:00 32.67693 -116.91757 4536 ft 183 kts 252°
2026-04-26 10:01 32.67311 -116.93195 4416 ft 183 kts 262°
2026-04-26 10:01 32.67466 -116.94703 4232 ft 188 kts 285°
2026-04-26 10:01 32.67833 -116.96213 3982 ft 192 kts 284°
2026-04-26 10:01 32.68196 -116.97725 3768 ft 187 kts 284°
2026-04-26 10:02 32.68550 -116.99184 3508 ft 181 kts 285°
2026-04-26 10:02 32.68891 -117.00584 3300 ft 178 kts 284°
2026-04-26 10:02 32.69231 -117.01993 3223 ft 177 kts 284°
2026-04-26 10:02 32.69577 -117.03411 3086 ft 182 kts 285°
2026-04-26 10:03 32.69928 -117.04851 2673 ft 174 kts 285°
2026-04-26 10:03 32.70258 -117.06204 2379 ft 165 kts 285°
2026-04-26 10:03 32.70565 -117.07467 2126 ft 154 kts 285°
2026-04-26 10:03 32.70847 -117.08623 1919 ft 138 kts 284°
2026-04-26 10:04 32.71105 -117.09685 1682 ft 131 kts 285°
2026-04-26 10:04 32.71358 -117.10726 1485 ft 134 kts 284°
2026-04-26 10:04 32.71618 -117.11799 1296 ft 136 kts 284°
2026-04-26 10:04 32.71878 -117.12870 1077 ft 134 kts 285°
2026-04-26 10:05 32.72136 -117.13934 845 ft 134 kts 284°
2026-04-26 10:05 32.72392 -117.14993 648 ft 134 kts 284°
2026-04-26 10:05 32.72647 -117.16055 486 ft 135 kts 285°
2026-04-26 10:05 32.72910 -117.17130 261 ft 135 kts 285°
2026-04-26 10:06 32.73168 -117.18192 39 ft 132 kts 285°
2026-04-26 10:06 32.73392 -117.19111 22 ft 88 kts 286°
2026-04-26 10:06 32.73518 -117.19628 24 ft 47 kts 286°
2026-04-26 10:06 32.73597 -117.19953 25 ft 35 kts 286°
2026-04-26 10:07 32.73622 -117.20069 22 ft 9 kts 270°
2026-04-26 10:07 32.73639 -117.20142 22 ft 9 kts 283°
2026-04-26 10:07 32.73614 -117.20206 22 ft 9 kts 212°
2026-04-26 10:07 32.73558 -117.20190 23 ft 9 kts 135°
2026-04-26 10:08 32.73535 -117.20124 22 ft 9 kts 106°
2026-04-26 10:08 32.73519 -117.20056 21 ft 8 kts 106°
2026-04-26 10:08 32.73502 -117.19991 23 ft 8 kts 108°
2026-04-26 10:08 32.73461 -117.19955 25 ft 8 kts 176°
2026-04-26 10:09 32.73402 -117.19968 23 ft 9 kts 193°
2026-04-26 10:09 32.73369 -117.19981 21 ft 5 kts 211°
2026-04-26 10:09 32.73352 -117.20032 20 ft 4 kts 259°
2026-04-26 10:09 32.73350 -117.20049 20 ft 1 kts 262°
2026-04-26 10:10 32.73350 -117.20053 22 ft 0 kts 262°
2026-04-26 10:10 32.73349 -117.20058 20 ft 0 kts 262°
2026-04-26 10:10 32.73349 -117.20060 21 ft 0 kts 262°
2026-04-26 10:12 32.73349 -117.20059 21 ft 0 kts 262°
2026-04-26 10:12 32.73349 -117.20060 20 ft 0 kts 262°